When you browse on this site, cookies collect data to enhance your experience and personalize the content and advertising you see.
Visit our Privacy Policy to learn more. By continuing to use the site, you agree to this use of cookies and data.
  • en Suisse
  • Liste des pays
  • À 7 jours
  • Température de l'eau
  • Carte météo
  • Widgets météo
  • user-avatar
    Se connecter

    Météo par heure à Wadzhir

    Ce jour, 21 Août, Mercredi

    Heure Température Précipitation Vent Pression Humidité
    00:00 +27°C° 0 mm 9 m/s 738 mmHg 56%
    01:00 +27°C° 0 mm 8 m/s 738 mmHg 60%
    02:00 +26°C° 0 mm 7 m/s 738 mmHg 64%
    03:00 +24°C° 0 mm 7 m/s 738 mmHg 68%
    04:00 +24°C° 0 mm 7 m/s 739 mmHg 68%
    05:00 +24°C° 0 mm 7 m/s 739 mmHg 68%
    06:00 +24°C° 0 mm 7 m/s 739 mmHg 69%
    07:00 +26°C° 0 mm 7 m/s 740 mmHg 66%
    08:00 +27°C° 0 mm 7 m/s 740 mmHg 64%
    09:00 +27°C° 0 mm 7 m/s 740 mmHg 61%
    10:00 +28°C° 0 mm 7 m/s 740 mmHg 57%
    11:00 +29°C° 0 mm 7 m/s 740 mmHg 53%
    12:00 +30°C° 0 mm 7 m/s 740 mmHg 49%
    13:00 +32°C° 0 mm 8 m/s 739 mmHg 44%
    14:00 +34°C° 0 mm 8 m/s 738 mmHg 38%
    15:00 +35°C° 0 mm 8 m/s 737 mmHg 33%
    16:00 +35°C° 0 mm 8 m/s 736 mmHg 35%
    17:00 +34°C° 0 mm 8 m/s 736 mmHg 36%
    18:00 +34°C° 0 mm 9 m/s 736 mmHg 38%
    19:00 +33°C° 0 mm 8 m/s 736 mmHg 42%
    20:00 +31°C° 0 mm 8 m/s 737 mmHg 45%
    21:00 +29°C° 0 mm 7 m/s 737 mmHg 49%
    22:00 +29°C° 0 mm 7 m/s 737 mmHg 51%
    23:00 +28°C° 0 mm 7 m/s 738 mmHg 54%

    Demain, 22 Août, Jeudi

    Heure Température Précipitation Vent Pression Humidité
    00:00 +27°C° 0 mm 7 m/s 738 mmHg 57%
    01:00 +26°C° 0 mm 6 m/s 738 mmHg 61%
    02:00 +25°C° 0 mm 5 m/s 738 mmHg 66%
    03:00 +25°C° 0 mm 4 m/s 738 mmHg 70%
    04:00 +23°C° 0 mm 4 m/s 738 mmHg 74%
    05:00 +24°C° 0 mm 3 m/s 738 mmHg 77%
    06:00 +22°C° 0 mm 3 m/s 739 mmHg 81%
    07:00 +23°C° 0 mm 4 m/s 739 mmHg 77%
    08:00 +25°C° 0 mm 5 m/s 740 mmHg 72%
    09:00 +26°C° 0 mm 6 m/s 740 mmHg 68%
    10:00 +27°C° 0 mm 6 m/s 740 mmHg 63%
    11:00 +28°C° 0 mm 7 m/s 739 mmHg 59%
    12:00 +29°C° 0 mm 7 m/s 739 mmHg 54%
    13:00 +32°C° 0 mm 7 m/s 738 mmHg 48%
    14:00 +33°C° 0 mm 8 m/s 737 mmHg 43%
    15:00 +35°C° 0 mm 8 m/s 736 mmHg 37%
    16:00 +34°C° 0 mm 8 m/s 736 mmHg 38%
    17:00 +34°C° 0 mm 8 m/s 736 mmHg 39%
    18:00 +33°C° 0 mm 8 m/s 735 mmHg 41%
    19:00 +32°C° 0 mm 8 m/s 736 mmHg 45%
    20:00 +30°C° 0 mm 7 m/s 736 mmHg 48%
    21:00 +29°C° 0 mm 7 m/s 737 mmHg 52%
    22:00 +28°C° 0 mm 7 m/s 737 mmHg 56%
    23:00 +28°C° 0 mm 7 m/s 738 mmHg 60%

    Après-demain, 23 Août, Vendredi

    Heure Température Précipitation Vent Pression Humidité
    00:00 +27°C° 0 mm 8 m/s 738 mmHg 64%
    01:00 +26°C° 0 mm 7 m/s 738 mmHg 69%
    02:00 +25°C° 0 mm 5 m/s 738 mmHg 73%
    03:00 +23°C° 0 mm 4 m/s 738 mmHg 78%
    04:00 +23°C° 0 mm 4 m/s 738 mmHg 80%
    05:00 +24°C° 0 mm 3 m/s 738 mmHg 82%
    06:00 +23°C° 0 mm 2 m/s 739 mmHg 84%
    07:00 +23°C° 0 mm 4 m/s 739 mmHg 80%
    08:00 +25°C° 0 mm 5 m/s 740 mmHg 75%
    09:00 +26°C° 0 mm 7 m/s 740 mmHg 70%
    10:00 +27°C° 0 mm 6 m/s 740 mmHg 65%
    11:00 +28°C° 0 mm 6 m/s 740 mmHg 61%
    12:00 +29°C° 0 mm 6 m/s 739 mmHg 56%
    13:00 +32°C° 0 mm 6 m/s 738 mmHg 50%
    14:00 +33°C° 0 mm 7 m/s 737 mmHg 45%
    15:00 +35°C° 0 mm 7 m/s 736 mmHg 39%
    16:00 +35°C° 0 mm 7 m/s 736 mmHg 39%
    17:00 +35°C° 0 mm 7 m/s 736 mmHg 38%
    18:00 +35°C° 0 mm 7 m/s 736 mmHg 38%
    19:00 +34°C° 0 mm 7 m/s 736 mmHg 42%
    20:00 +32°C° 0 mm 7 m/s 737 mmHg 47%
    21:00 +30°C° 0 mm 7 m/s 737 mmHg 51%
    22:00 +29°C° 0 mm 7 m/s 737 mmHg 56%
    23:00 +28°C° 0 mm 8 m/s 738 mmHg 61%

    24 Août, Samedi

    Heure Température Précipitation Vent Pression Humidité
    00:00 +27°C° 0 mm 8 m/s 738 mmHg 66%
    01:00 +27°C° 0 mm 7 m/s 738 mmHg 70%
    02:00 +26°C° 0 mm 6 m/s 738 mmHg 75%
    03:00 +25°C° 0 mm 5 m/s 738 mmHg 80%
    04:00 +25°C° 0 mm 5 m/s 738 mmHg 80%
    05:00 +25°C° 0 mm 4 m/s 739 mmHg 81%
    06:00 +25°C° 0 mm 4 m/s 739 mmHg 82%
    07:00 +26°C° 0.1 mm 5 m/s 740 mmHg 75%
    08:00 +27°C° 0.1 mm 6 m/s 740 mmHg 69%
    09:00 +29°C° 0.1 mm 7 m/s 741 mmHg 63%
    10:00 +30°C° 0 mm 7 m/s 740 mmHg 57%
    11:00 +32°C° 0 mm 7 m/s 740 mmHg 51%
    12:00 +34°C° 0 mm 7 m/s 739 mmHg 45%
    13:00 +34°C° 0 mm 7 m/s 738 mmHg 43%
    14:00 +35°C° 0 mm 7 m/s 737 mmHg 41%
    15:00 +35°C° 0 mm 8 m/s 736 mmHg 39%
    16:00 +35°C° 0 mm 8 m/s 736 mmHg 40%
    17:00 +34°C° 0 mm 8 m/s 736 mmHg 42%
    18:00 +34°C° 0 mm 8 m/s 736 mmHg 43%
    19:00 +33°C° 0 mm 8 m/s 736 mmHg 49%
    20:00 +31°C° 0 mm 9 m/s 737 mmHg 54%
    21:00 +29°C° 0 mm 9 m/s 738 mmHg 60%
    22:00 +28°C° 0 mm 8 m/s 738 mmHg 64%
    23:00 +28°C° 0 mm 8 m/s 738 mmHg 68%

    25 Août, Dimanche

    Heure Température Précipitation Vent Pression Humidité
    00:00 +27°C° 0 mm 7 m/s 739 mmHg 72%
    01:00 +26°C° 0 mm 7 m/s 738 mmHg 74%
    02:00 +26°C° 0 mm 6 m/s 738 mmHg 76%
    03:00 +24°C° 0 mm 6 m/s 738 mmHg 79%
    04:00 +25°C° 0 mm 5 m/s 738 mmHg 80%
    05:00 +25°C° 0 mm 4 m/s 739 mmHg 81%
    06:00 +24°C° 0 mm 3 m/s 739 mmHg 82%
    07:00 +26°C° 0.1 mm 4 m/s 740 mmHg 75%
    08:00 +27°C° 0.1 mm 6 m/s 740 mmHg 68%
    09:00 +29°C° 0.1 mm 7 m/s 741 mmHg 60%
    10:00 +30°C° 0.1 mm 7 m/s 740 mmHg 56%
    11:00 +32°C° 0.1 mm 7 m/s 740 mmHg 51%
    12:00 +33°C° 0.1 mm 8 m/s 739 mmHg 46%
    13:00 +33°C° 0 mm 8 m/s 738 mmHg 44%
    14:00 +34°C° 0 mm 8 m/s 738 mmHg 41%
    15:00 +35°C° 0 mm 8 m/s 737 mmHg 38%
    16:00 +34°C° 0 mm 8 m/s 736 mmHg 40%
    17:00 +34°C° 0 mm 9 m/s 736 mmHg 41%
    18:00 +33°C° 0 mm 9 m/s 736 mmHg 42%
    19:00 +32°C° 0 mm 8 m/s 736 mmHg 46%
    20:00 +31°C° 0 mm 8 m/s 737 mmHg 50%
    21:00 +29°C° 0 mm 7 m/s 738 mmHg 54%
    22:00 +28°C° 0 mm 7 m/s 738 mmHg 58%
    23:00 +27°C° 0 mm 7 m/s 738 mmHg 62%

    26 Août, Lundi

    Heure Température Précipitation Vent Pression Humidité
    00:00 +27°C° 0 mm 7 m/s 739 mmHg 66%
    01:00 +26°C° 0 mm 7 m/s 738 mmHg 69%
    02:00 +24°C° 0 mm 6 m/s 738 mmHg 73%
    03:00 +25°C° 0 mm 5 m/s 738 mmHg 76%
    04:00 +25°C° 0 mm 5 m/s 739 mmHg 78%
    05:00 +23°C° 0 mm 4 m/s 739 mmHg 80%
    06:00 +24°C° 0 mm 3 m/s 739 mmHg 82%
    07:00 +25°C° 0.1 mm 4 m/s 740 mmHg 77%
    08:00 +26°C° 0.1 mm 5 m/s 740 mmHg 72%
    09:00 +27°C° 0.1 mm 6 m/s 741 mmHg 67%
    10:00 +29°C° 0 mm 6 m/s 740 mmHg 59%
    11:00 +30°C° 0 mm 7 m/s 740 mmHg 51%
    12:00 +33°C° 0 mm 7 m/s 739 mmHg 43%
    13:00 +34°C° 0 mm 7 m/s 739 mmHg 39%
    14:00 +35°C° 0 mm 7 m/s 738 mmHg 35%
    15:00 +36°C° 0 mm 7 m/s 737 mmHg 30%
    16:00 +35°C° 0 mm 8 m/s 737 mmHg 33%
    17:00 +34°C° 0 mm 8 m/s 736 mmHg 36%
    18:00 +34°C° 0 mm 9 m/s 736 mmHg 39%
    19:00 +33°C° 0 mm 8 m/s 737 mmHg 41%
    20:00 +32°C° 0 mm 7 m/s 737 mmHg 43%
    21:00 +30°C° 0 mm 5 m/s 738 mmHg 45%
    22:00 +29°C° 0 mm 6 m/s 738 mmHg 49%
    23:00 +28°C° 0 mm 7 m/s 738 mmHg 53%
    Voir plus